FENGYUN 1C DEB, 31776

Orbit data source: Space-Track

FENGYUN 1C DEB, 31776 is space debris in SSO originally from a launch on Mon, 10 May 1999 UTC launched from the Taiyaun Space Center, China (TSC). Fengyun 1C debris stems from the Chinese weather satellite Fengyun-1C, which was intentionally destroyed by a Chinese anti-satellite missile in 2007. This event dramatically increased the amount of space debris, with thousands of trackable fragments posing hazards to satellites and human spaceflight. The Fengyun 1C debris cloud has become a focal point in discussions about space sustainability and the need for international regulations to prevent the creation of new debris.

Loading next visibility...
Identifier
31776, 1999-025CGB
Orbit
SSO
Country
Flag of CNCN / PRC
Related business
Manufacturer
Unknown
Mission
Spacecraft
Bus & Motor
Unknown
Mass
Unknown
Launch date (UTC)
1999-05-10 (27 years ago)
Launch vehicle
Unknown
Launch site
Taiyaun Space Center, China (TSC)
Object type
Payload
Rocket body
Debris
Shape & HBR
Unknown shape, 0.1 m
Radar Cross Section
Small (<0.1 m²)

Expand to show TLE details & history
Last TLE update: 10 hours ago

TLE from 10 hours ago
0 FENGYUN 1C DEB
1 31776U 99025CGB 26255.14935620  .00001440  00000-0  69092-3 0  9997
2 31776  99.0568 326.1555 0052349 274.9610 114.6968 14.19885748987590
Epoch: 2026-09-12T03:35Z
TLE epoch observation values (Epoch: 2026-09-12T03:35:04.375Z)
Latitude
29.83747°
Longitude
-83.99324°
Altitude
845.373 km
Speed
7.425 km/s
True Right ascension
21h 23m 44s
True Declination
29° 41' 28"
Sunlit
Object was in full shadow at epoch
Visualization orbit readout
Latitude
Unknown
Longitude
Unknown
Altitude
Unknown
Speed
Unknown
Apparent Right ascension
Unknown
Apparent Declination
Unknown
Sunlit
N/A
Visualization observer readout
Local Sidereal Time
05:38:34
Azimuth
Unknown
Elevation
Unknown
Doppler factor
Unknown
Orbital elements
Apogee altitude
860.612 km
Perigee altitude
785.218 km
Semi-major axis
7,201.052 km
Eccentricity
0.00523
Inclination
99.0568°
RAAN
326.1555°
Arg. of periapsis
274.961°
True anomaly
115.24031°
Mean anomaly
114.6968°
Eccentric anomaly
114.96871°
Mean motion
3.55181 °/min
Orbital period
101.36 mins
BSTAR
0.00069092
Loading maneuver chart data...
Computing Atmospheric mass density...
Loading historical data...
Loading historical data...
Loading historical data...
Loading historical data...
Loading historical data...
Loading historical data...
Loading historical data...

Documentation

Showing up to 5 results
|